This is the latest recevied weather packets stored in our database for station/object KC3QLX. If no packets are shown the sender has not sent any weather packets the latest 10 day(s).
| Time | Temp. | Humidity | Pressure | Rain* | Wind** | Luminosity | Snow |
|---|---|---|---|---|---|---|---|
| 1778181681 | 16.67° C | 43% | 1008.5 hPa | 0 mm | - | 514 W/m² | - |
| 1778181376 | 16.67° C | 40% | 1008.9 hPa | 0 mm | - | 213 W/m² | - |
| 1778181073 | 16.67° C | 41% | 1008.8 hPa | 0 mm | - | 595 W/m² | - |
| 1778180770 | 17.78° C | 38% | 1008.8 hPa | 0 mm | - | 165 W/m² | - |
| 1778180469 | 17.22° C | 38% | 1008.5 hPa | 0 mm | - | 602 W/m² | - |
| 1778180167 | 17.22° C | 42% | 1008.7 hPa | 0 mm | - | 610 W/m² | - |
| 1778179863 | 17.22° C | 41% | 1009 hPa | 0 mm | - | 600 W/m² | - |
| 1778179562 | 17.78° C | 41% | 1009 hPa | 0 mm | - | 625 W/m² | - |
| 1778179259 | 17.22° C | 41% | 1008.9 hPa | 0 mm | - | 628 W/m² | - |
| 1778178955 | 16.67° C | 43% | 1008.9 hPa | 0 mm | - | 667 W/m² | - |
| 1778178652 | 17.22° C | 43% | 1009.3 hPa | 0 mm | - | 657 W/m² | - |
| 1778178348 | 17.78° C | 39% | 1009 hPa | 0 mm | - | 654 W/m² | - |
| 1778178044 | 17.22° C | 45% | 1009 hPa | 0 mm | - | 665 W/m² | - |
| 1778177742 | 17.22° C | 44% | 1009.2 hPa | 0 mm | - | 675 W/m² | - |
| 1778177438 | 16.67° C | 39% | 1009.1 hPa | 0 mm | - | 675 W/m² | - |
| 1778177134 | 17.22° C | 39% | 1009.3 hPa | 0 mm | - | 676 W/m² | - |
| 1778176831 | 16.67° C | 41% | 1009.1 hPa | 0 mm | - | 679 W/m² | - |
| 1778176527 | 17.22° C | 39% | 1009.3 hPa | 0 mm | - | 681 W/m² | - |
| 1778176225 | 16.67° C | 42% | 1009.5 hPa | 0 mm | - | 685 W/m² | - |
| 1778175922 | 16.67° C | 41% | 1009.5 hPa | 0 mm | - | 686 W/m² | - |
| 1778175620 | 16.67° C | 44% | 1009.3 hPa | 0 mm | - | 689 W/m² | - |
| 1778175316 | 16.11° C | 42% | 1009.7 hPa | 0 mm | - | 688 W/m² | - |
| 1778175014 | 16.11° C | 41% | 1009.6 hPa | 0 mm | - | 690 W/m² | - |
| 1778174709 | 16.11° C | 40% | 1009.7 hPa | 0 mm | - | 695 W/m² | - |
| 1778174406 | 16.11° C | 41% | 1010 hPa | 0 mm | - | 698 W/m² | - |
* Rain latest hour (hover to see other rain measurements)
** Current wind speed in m/s (hover to see current wind gust speed)